Weather History for KEWR - June, 2013

Change the Weather History Date:

Friday, June 7, 2013

  Actual Average Record
Temperature  
Mean Temperature 63 °F 70 °F  
Max Temperature 65 °F 79 °F 99 °F (1999)
Min Temperature 60 °F 61 °F 48 °F (1945)
Degree Days  
Heating Degree Days 2 1  
Month to date heating degree days 4 9  
Since 1 June heating degree days 4 9  
Since 1 July heating degree days 4635 4864  
Cooling Degree Days 0 6  
Month to date cooling degree days 44 36  
Year to date cooling degree days 144 112  
Since 1 June cooling degree days 44 36  
Growing Degree Days 12 (Base 50)    
Moisture  
Dew Point 61 °F    
Average Humidity 95    
Maximum Humidity 100    
Minimum Humidity 90    
Precipitation  
Precipitation 3.71 in 0.14 in 3.71 in (2013)
Month to date precipitation 5.56 1.00  
Year to date precipitation 21.81 19.89  
Snow  
Snow 0.00 in 0.00 in 0.00 in (2002)
Month to date snowfall 0.0 0.0  
Since 1 July snowfall 29.5 28.5  
Snow Depth 0.00 in    
Sea Level Pressure  
Sea Level Pressure 29.82 in    
Wind  
Wind Speed 12 mph (ENE)    
Max Wind Speed 22 mph    
Max Gust Speed 28 mph    
Visibility 4 miles    
Events Rain    
T = Trace of Precipitation, MM = Missing Value Source: NWS Daily Summary

Daily Weather History Graph

Daily Weather History Graph

Search for Another Location

Airport or City:

Trip Planner

Search our weather history database for the weather conditions in past years. The results will help you decide how hot, cold, wet, or windy it might be!

Date:

Astronomy

Jun. 07, 2013 Rise Set
Actual Time 5:25 AM EDT 8:25 PM EDT
Civil Twilight 4:52 AM EDT 8:58 PM EDT
Nautical Twilight 4:10 AM EDT 9:40 PM EDT
Astronomical Twilight 3:21 AM EDT 10:29 PM EDT
Moon 4:47 AM EDT (6/7) 7:37 PM EDT (6/7)
Length of Visible Light 16h 06m
Length of Day
14h 59m
Waning Crescent, 1% of the Moon is Illuminated
Jun 7
Waning Crescent
Jun 8
New
Jun 16
First Quarter
Jun 23
Full
Jun 30
Last Quarter

Hourly Weather History & Observations

Time (EDT) Temp. Dew Point Humidity Pressure Visibility Wind Dir Wind Speed Gust Speed Precip Events Conditions
12:51 AM 62.1 °F 59.0 °F 90% 29.99 in 7.0 mi ESE 8.1 mph - 0.03 in Rain Light Rain
1:51 AM 62.1 °F 59.0 °F 90% 29.98 in 9.0 mi East 3.5 mph - 0.03 in Rain Light Rain
2:24 AM 62.6 °F 60.8 °F 94% 29.97 in 7.0 mi East 4.6 mph - 0.01 in Rain Light Rain
2:51 AM 62.1 °F 60.1 °F 93% 29.96 in 6.0 mi East 3.5 mph - 0.04 in Rain Light Rain
3:12 AM 62.6 °F 60.8 °F 94% 29.96 in 4.0 mi East 5.8 mph - 0.03 in Rain Rain
3:51 AM 62.1 °F 60.1 °F 93% 29.94 in 4.0 mi ESE 10.4 mph - 0.12 in Rain Rain
4:03 AM 62.6 °F 60.8 °F 94% 29.94 in 2.5 mi ESE 5.8 mph - 0.06 in Rain Heavy Rain
4:51 AM 62.1 °F 61.0 °F 96% 29.92 in 3.0 mi East 9.2 mph - 0.31 in Rain Rain
5:42 AM 62.6 °F 60.8 °F 94% 29.92 in 2.0 mi East 9.2 mph 16.1 mph 0.08 in Rain Rain
5:51 AM 62.1 °F 61.0 °F 96% 29.92 in 3.0 mi ESE 6.9 mph - 0.10 in Rain Rain
6:51 AM 62.1 °F 61.0 °F 96% 29.92 in 4.0 mi East 8.1 mph - 0.08 in Rain Rain
7:51 AM 63.0 °F 61.0 °F 93% 29.90 in 4.0 mi East 8.1 mph - 0.11 in Rain Rain
7:57 AM 62.6 °F 60.8 °F 94% 29.90 in 4.0 mi East 6.9 mph - 0.01 in Rain Light Rain
8:51 AM 63.0 °F 61.0 °F 93% 29.90 in 5.0 mi East 8.1 mph - 0.07 in Rain Light Rain
9:23 AM 62.6 °F 60.8 °F 94% 29.90 in 4.0 mi East 8.1 mph - 0.05 in Rain Rain
9:51 AM 63.0 °F 61.0 °F 93% 29.89 in 4.0 mi East 11.5 mph 19.6 mph 0.12 in Rain Light Rain
10:51 AM 63.0 °F 61.0 °F 93% 29.87 in 4.0 mi East 13.8 mph 19.6 mph 0.19 in Rain Rain
11:06 AM 62.6 °F 62.6 °F 100% 29.87 in 3.0 mi East 10.4 mph 17.3 mph 0.03 in Rain Rain
11:51 AM 64.0 °F 62.1 °F 93% 29.87 in 3.0 mi East 9.2 mph - 0.12 in Rain Rain
12:16 PM 64.4 °F 62.6 °F 94% 29.87 in 2.5 mi ENE 12.7 mph - 0.10 in Rain Heavy Rain
12:26 PM 64.4 °F 62.6 °F 94% 29.86 in 3.0 mi ENE 11.5 mph - 0.12 in Rain Light Rain
12:51 PM 64.0 °F 62.1 °F 93% 29.86 in 3.0 mi ENE 8.1 mph - 0.15 in Rain Rain
1:51 PM 64.0 °F 62.1 °F 93% 29.84 in 4.0 mi ENE 10.4 mph - 0.15 in Rain Rain
2:51 PM 64.0 °F 63.0 °F 96% 29.82 in 5.0 mi NE 8.1 mph - 0.13 in Rain Light Rain
3:51 PM 64.0 °F 63.0 °F 96% 29.79 in 3.0 mi NNE 8.1 mph - 0.13 in Rain Rain
4:51 PM 63.0 °F 61.0 °F 93% 29.75 in 4.0 mi NE 15.0 mph 23.0 mph 0.12 in Rain Rain
5:31 PM 62.6 °F 60.8 °F 94% 29.74 in 2.5 mi NNE 16.1 mph 21.9 mph 0.07 in Rain Rain
5:33 PM 62.6 °F 60.8 °F 94% 29.74 in 1.8 mi NNE 16.1 mph - 0.09 in Rain Heavy Rain
5:43 PM 62.6 °F 60.8 °F 94% 29.73 in 2.5 mi NNE 13.8 mph - 0.16 in Rain Rain
5:51 PM 62.1 °F 61.0 °F 96% 29.73 in 3.0 mi NNE 16.1 mph - 0.17 in Rain Light Rain
6:45 PM 60.8 °F 60.8 °F 100% 29.73 in 2.5 mi NE 13.8 mph 23.0 mph 0.09 in Rain Heavy Rain
6:51 PM 61.0 °F 60.1 °F 97% 29.73 in 2.5 mi NE 15.0 mph 23.0 mph 0.11 in Rain Rain
7:26 PM 60.8 °F 59.0 °F 94% 29.70 in 1.8 mi NNE 17.3 mph 25.3 mph 0.19 in Rain Heavy Rain
7:31 PM 60.8 °F 59.0 °F 94% 29.72 in 2.0 mi NE 17.3 mph 25.3 mph 0.24 in Rain Heavy Rain
7:36 PM 60.8 °F 59.0 °F 94% 29.71 in 1.5 mi NNE 17.3 mph 25.3 mph 0.24 in Rain Light Rain
7:51 PM 61.0 °F 60.1 °F 97% 29.72 in 1.0 mi NE 18.4 mph 24.2 mph 0.38 in Rain Heavy Rain
8:51 PM 61.0 °F 60.1 °F 97% 29.69 in 3.0 mi NNE 17.3 mph 23.0 mph 0.33 in Rain Light Rain
9:04 PM 62.6 °F 60.8 °F 94% 29.69 in 2.0 mi NNE 16.1 mph 24.2 mph 0.03 in Rain Heavy Rain
9:30 PM 60.8 °F 60.8 °F 100% 29.68 in 3.0 mi NNE 18.4 mph 24.2 mph 0.23 in Rain Rain
9:41 PM 60.8 °F 60.8 °F 100% 29.68 in 2.0 mi NNE 18.4 mph - 0.27 in Rain Heavy Rain
9:51 PM 61.0 °F 60.1 °F 97% 29.67 in 2.0 mi NNE 16.1 mph 27.6 mph 0.50 in Rain Heavy Rain
10:21 PM 62.6 °F 60.8 °F 94% 29.67 in 3.0 mi NNE 17.3 mph 25.3 mph 0.12 in Rain Light Rain
10:51 PM 62.1 °F 60.1 °F 93% 29.65 in 5.0 mi NE 18.4 mph - 0.19 in Rain Light Rain
11:51 PM 62.1 °F 60.1 °F 93% 29.62 in 6.0 mi NNE 19.6 mph 26.5 mph 0.03 in Rain Light Rain